TimeEST,TemperatureF,Dew PointF,Humidity,Sea Level PressureIn,VisibilityMPH,Wind Direction,Wind SpeedMPH,Gust SpeedMPH,PrecipitationIn,Events,Conditions,WindDirDegrees,DateUTC
12:13 AM,46.4,44.6,93,29.73,6.0,WSW,4.6,-,0.00,Rain,Light Rain,250,2014-01-14 05:13:00
12:15 AM,46.4,44.6,93,29.73,6.0,WSW,6.9,-,0.01,Rain,Light Rain,250,2014-01-14 05:15:00
12:53 AM,46.0,44.1,93,29.73,7.0,WSW,5.8,-,0.01,Rain,Light Rain,250,2014-01-14 05:53:00
1:15 AM,46.4,44.6,93,29.73,8.0,West,8.1,-,0.00,Rain,Light Rain,280,2014-01-14 06:15:00
1:29 AM,46.4,42.8,87,29.73,9.0,WNW,6.9,-,0.00,,Overcast,290,2014-01-14 06:29:00
1:40 AM,46.4,42.8,87,29.73,10.0,West,4.6,-,0.00,,Overcast,280,2014-01-14 06:40:00
1:53 AM,46.0,43.0,89,29.75,9.0,West,8.1,-,0.00,,Overcast,280,2014-01-14 06:53:00
2:41 AM,44.6,42.8,93,29.75,8.0,NW,4.6,-,N/A,,Overcast,310,2014-01-14 07:41:00
2:53 AM,44.1,41.0,89,29.75,8.0,NW,4.6,-,N/A,,Overcast,320,2014-01-14 07:53:00
3:53 AM,42.1,39.9,92,29.76,6.0,Calm,Calm,-,N/A,,Overcast,0,2014-01-14 08:53:00
4:53 AM,41.0,37.9,89,29.77,9.0,WSW,4.6,-,N/A,,Scattered Clouds,240,2014-01-14 09:53:00
5:00 AM,41.0,37.4,87,29.77,8.0,WSW,5.8,-,N/A,,Mostly Cloudy,250,2014-01-14 10:00:00
5:07 AM,41.0,37.4,87,29.76,8.0,West,3.5,-,N/A,,Scattered Clouds,260,2014-01-14 10:07:00
5:53 AM,39.0,35.1,86,29.78,9.0,Variable,3.5,-,N/A,,Partly Cloudy,0,2014-01-14 10:53:00
6:26 AM,39.2,35.6,87,29.78,8.0,WNW,5.8,-,N/A,,Mostly Cloudy,300,2014-01-14 11:26:00
6:53 AM,39.0,35.1,86,29.81,8.0,WNW,8.1,-,N/A,,Overcast,290,2014-01-14 11:53:00
7:16 AM,37.4,35.6,93,29.81,7.0,West,6.9,-,N/A,,Overcast,260,2014-01-14 12:16:00
7:53 AM,37.0,33.1,86,29.83,6.0,West,4.6,-,N/A,,Overcast,280,2014-01-14 12:53:00
8:49 AM,35.6,33.8,93,29.83,4.0,WNW,5.8,-,N/A,,Overcast,290,2014-01-14 13:49:00
8:53 AM,36.0,33.1,89,29.84,4.0,West,4.6,-,N/A,,Overcast,280,2014-01-14 13:53:00
9:20 AM,35.6,32.0,87,29.84,5.0,West,3.5,-,N/A,,Overcast,260,2014-01-14 14:20:00
9:53 AM,36.0,32.0,86,29.87,5.0,WSW,8.1,-,N/A,,Overcast,250,2014-01-14 14:53:00
10:12 AM,35.6,30.2,81,29.86,-9999.0,North,-9999.0,-,N/A,,Unknown,0,2014-01-14 15:12:00
11:33 AM,37.0,30.9,79,29.84,9.0,West,4.6,-,N/A,,Mostly Cloudy,280,2014-01-14 16:33:00
11:53 AM,37.9,30.0,73,29.83,10.0,WSW,11.5,-,N/A,,Mostly Cloudy,240,2014-01-14 16:53:00
12:05 PM,39.0,30.0,70,29.83,10.0,SW,9.2,-,N/A,,Partly Cloudy,230,2014-01-14 17:05:00
12:53 PM,41.0,32.0,70,29.81,10.0,WSW,8.1,-,N/A,,Clear,240,2014-01-14 17:53:00
1:53 PM,42.1,30.9,65,29.80,10.0,SSW,8.1,-,N/A,,Clear,210,2014-01-14 18:53:00
2:53 PM,45.0,28.9,53,29.81,10.0,SW,11.5,-,N/A,,Clear,220,2014-01-14 19:53:00
3:53 PM,46.0,28.0,50,29.80,10.0,SSW,9.2,-,N/A,,Clear,210,2014-01-14 20:53:00
4:53 PM,45.0,27.0,49,29.80,10.0,SSW,9.2,-,N/A,,Clear,200,2014-01-14 21:53:00
5:53 PM,41.0,28.0,60,29.79,10.0,SSE,6.9,-,N/A,,Scattered Clouds,150,2014-01-14 22:53:00
6:53 PM,43.0,30.0,60,29.79,10.0,SSW,6.9,-,N/A,,Overcast,200,2014-01-14 23:53:00
7:53 PM,44.1,30.0,58,29.81,10.0,SSW,8.1,-,N/A,,Overcast,210,2014-01-15 00:53:00
8:53 PM,45.0,28.9,53,29.81,10.0,SW,11.5,-,N/A,,Overcast,220,2014-01-15 01:53:00
9:53 PM,43.0,33.1,68,29.83,10.0,West,18.4,-,N/A,,Overcast,260,2014-01-15 02:53:00
10:23 PM,41.0,36.0,82,29.84,10.0,West,10.4,-,0.00,Rain,Light Rain,260,2014-01-15 03:23:00
10:50 PM,37.4,33.8,87,29.85,6.0,WNW,16.1,24.2,0.01,Rain,Light Rain,290,2014-01-15 03:50:00
10:53 PM,37.9,34.0,86,29.85,6.0,West,10.4,23.0,0.01,Rain,Light Rain,280,2014-01-15 03:53:00
11:20 PM,37.0,32.0,82,29.85,8.0,WNW,9.2,-,0.01,,Overcast,290,2014-01-15 04:20:00
11:53 PM,36.0,30.9,82,29.87,10.0,WNW,5.8,-,0.01,,Overcast,290,2014-01-15 04:53:00